Погода в Тула-де-Альенде

Мексика     20°03′11″N   99°20′37″W
темп.,
°C
ветер,
м/с
пор.,
м/с
влажн.,
%
обл.,
%
осадки,
мм/ч
давл.,
гПа
погр.,
м
30 ноября, вт
вт3000:00+8с119615 0.0 102319
03:00+7юз119713 0.0 102210
06:00+7ю11935 0.0 102210
09:00+12ю11635 0.0 1021252
12:00+20ссв11295 0.0 10171101
15:00+22ссв42235 0.0 10132078
18:00+16св454481 0.0 101666
21:00+13ссз1162100 0.0 101910
1 декабря, ср
ср100:00+11зсз0072100 0.0 102010
03:00+10юз0077100 0.0 101910
06:00+9юз117898 0.0 102110
09:00+14ююз1156100 0.0 1022218
12:00+20ссв2233100 0.0 10181336
15:00+22ссв5327100 0.0 10142398
18:00+16ссв475095 0.0 1018138
21:00+12с117598 0.0 102111
2 декабря, чт
чт200:00+10с118834 0.0 102211
03:00+9с119729 0.0 102214
06:00+9св119478 0.0 1023108
09:00+11сз10799 0.0 1024295
12:00+18ссв22340 0.0 10191127
15:00+21с43260 0.0 10151966
18:00+15ссв47520 0.0 1018130
21:00+11ссз11720 0.0 102111
3 декабря, пт
пт300:00+9с11850 0.0 102210
03:00+8ссз11944 0.0 102210
06:00+7зюз01931 0.0 102210
09:00+12ююз00700 0.0 1022253
12:00+19с22350 0.0 10181124
15:00+21с54245 0.0 10141737
18:00+15св45460 0.0 101661
21:00+12ссз116567 0.0 102010
4 декабря, сб
сб400:00+10сз007953 0.0 102010
03:00+8зюз11842 0.0 102010
06:00+7ююз11835 0.0 102010
09:00+13ююз115522 0.0 1021227
12:00+20св122568 0.0 10171115
15:00+22с321857 0.0 10121863
18:00+16ссв333091 0.0 101531
21:00+12ссз114356 0.0 101810